カタログに戻る

STARLINK-4520

運用中通信VLEO
NORAD 53400·PAYLOAD·🇺🇸 United States

打ち上げ Aug 10, 2022 から Cape Canaveral Space Force Station

Loading…

次のパス (今後24時間)

TLE

最新Source: CelesTrak SupGP

元期: Sep 15, 2026, 02:32 UTC

1 53400C 22097N   26258.10604167  .00050898  00000+0  14564-2 0  2589
2 53400  53.1604 346.9455 0001142  88.3376 183.6657 15.35369104    16

AllMySatでSTARLINK-4520をリアルタイム追跡

Download on the App Store